Flag for United Kingdom Weather past 2 weeks in St Helens, England, United Kingdom

Now
54 °F

Scattered showers. Broken clouds.


Feels Like: 53 °F
Forecast: 47 / 65 °F
Wind: 5 mph from West

Location: Liverpool Airport

Current Time: Aug 20, 2014 at 10:45:25 AM

Latest Report: Aug 20, 2014 at 10:20 AM


Visibility: N/A

Pressure: 30.04 "Hg

Humidity: 88%

Dew point: 50 °F

Location of St HelensLocation

Historic Weather in St Helens — Graph

°F

St Helens temperature yesterday

Maximum temperature yesterday: 61 °F (at 3:20 PM)
Minimum temperature yesterday: 50 °F (at 2:50 AM)
Average temperature yesterday: 55 °F

Past Weeks' High & Low Weather Summary

 TemperatureHumidityPressure
High73 °F (Aug 8, 3:20 PM)100% (Aug 10, 8:20 AM)30.15 "Hg (Aug 10, 8:20 AM)
Low50 °F (Aug 19, 2:50 AM)46% (Aug 9, 4:50 PM)29.27 "Hg (Aug 10, 1:50 PM)
Average60 °F76%29.78 "Hg
* Reported Aug 5 9:20 AM — Aug 20 9:50 AM, St Helens, Weather by CustomWeather, © 2014

Note: Actual official high and low records may vary slightly from our data, if they occured in-between our weather recording intervals... More about our weather records

Advertising

St Helens weather history for previous 24 hours

 ConditionsComfort  
Time TempWeatherWind HumidityBarometerVisibility
9:50 AM
Aug 20
54 °FSprinkles. Partly sunny.3 mph88%30.01 "HgN/A
9:20 AM54 °FSprinkles. Partly sunny.7 mph82%30.01 "HgN/A
8:50 AM54 °FScattered showers. Partly sunny.8 mph82%30.01 "HgN/A
8:20 AM54 °FScattered showers. Partly sunny.8 mph82%30.01 "HgN/A
7:50 AM52 °FSprinkles. Scattered clouds.9 mph88%30.01 "HgN/A
7:20 AM52 °FScattered showers. Scattered clouds.1 mph88%30.01 "HgN/A
6:50 AM52 °FScattered showers. Passing clouds.3 mph82%30.01 "HgN/A
6:20 AM52 °FScattered showers. Passing clouds.6 mph88%30.01 "HgN/A
5:50 AM50 °FScattered showers. Passing clouds.8 mph94%30.01 "HgN/A
5:20 AM50 °FScattered showers. Passing clouds.9 mph94%30.01 "HgN/A
4:50 AM52 °FSprinkles. Passing clouds.7 mph88%30.01 "HgN/A
4:20 AM52 °FPassing clouds.8 mph88%30.01 "HgN/A
3:50 AM52 °FPassing clouds.7 mph88%30.01 "HgN/A
3:20 AM52 °FPassing clouds.8 mph88%30.01 "HgN/A
2:50 AM52 °FPassing clouds.6 mph77%30.01 "HgN/A
2:20 AM55 °FPassing clouds.7 mph67%30.01 "HgN/A
1:50 AM55 °FPassing clouds.6 mph72%30.01 "HgN/A
1:20 AM54 °FPassing clouds.7 mph72%30.01 "HgN/A
12:50 AM54 °FPassing clouds.9 mph72%30.01 "HgN/A
12:20 AM54 °FPassing clouds.8 mph72%30.01 "HgN/A
11:50 PM
Aug 19
55 °FPassing clouds.8 mph72%30.01 "HgN/A
11:20 PM55 °FPassing clouds.9 mph72%30.01 "HgN/A
10:50 PM55 °FPassing clouds.8 mph72%30.01 "HgN/A
10:20 PM55 °FPassing clouds.9 mph72%30.01 "HgN/A
9:20 PM55 °FScattered clouds.14 mph72%29.98 "HgN/A
8:50 PM55 °FScattered clouds.13 mph72%29.98 "HgN/A
8:20 PM57 °FScattered clouds.12 mph67%29.98 "HgN/A
7:50 PM57 °FPassing clouds.13 mph63%29.98 "HgN/A
7:20 PM59 °FPassing clouds.15 mph63%29.98 "HgN/A
6:50 PM59 °FPassing clouds.15 mph59%29.98 "HgN/A
6:20 PM59 °FScattered clouds.14 mph59%29.98 "HgN/A
5:50 PM59 °FPassing clouds.15 mph59%29.98 "HgN/A
5:20 PM59 °FPassing clouds.15 mph55%29.95 "HgN/A
4:50 PM59 °FPassing clouds.17 mph55%29.95 "HgN/A
4:20 PM59 °FScattered clouds.15 mph59%29.95 "HgN/A
3:50 PM59 °FPassing clouds.16 mph59%29.95 "HgN/A
3:20 PM61 °FScattered clouds.16 mph59%29.95 "HgN/A
2:50 PM59 °FScattered clouds.16 mph59%29.95 "HgN/A
2:20 PM59 °FScattered clouds.15 mph55%29.95 "HgN/A
1:50 PM59 °FScattered clouds.16 mph59%29.92 "HgN/A
1:20 PM59 °FScattered clouds.15 mph59%29.92 "HgN/A
12:50 PM59 °FScattered clouds.17 mph59%29.92 "HgN/A
12:20 PM59 °FScattered clouds.16 mph63%29.92 "HgN/A
11:50 AM59 °FScattered clouds.14 mph68%29.92 "HgN/A
11:20 AM57 °FScattered clouds.15 mph67%29.92 "HgN/A
10:50 AM57 °FScattered showers. Scattered clouds.10 mph72%29.89 "HgN/A
10:20 AM54 °FScattered showers. Scattered clouds.9 mph77%29.89 "HgN/A
Weather by CustomWeather, © 2014

See weather overviewHow to use our weather pages